Location: Unspecified
(0.0000°N, 0.0000°E)
Time: 00:01:40
(UTC+00:00)

Vanguard 2 Rocket - Pass Details

Date: 17 December 2018
Orbit: 554 x 3327 km, 32.9° (Epoch: 18 January)

Event Time Altitude Azimuth Distance (km) Brightness Sun altitude
Rises 23:02:50 0° 225° (SW) 7,029 11.8 -63.3°
Reaches altitude 10° 23:08:36 10° 218° (SW) 5,699 11.2 -63.9°
Enters shadow 23:17:28 29° 194° (SSW) 3,681 10.0 -64.8°
Maximum altitude 23:22:55 38° 156° (SSE) 2,835 - -65.3°
Drops below altitude 10° 23:31:41 10° 90° (E) 3,542 - -65.9°
Sets 23:34:20 0° 82° (E) 4,202 - -66.0°
